Location: Montague
(41.3030°N, 74.7940°W)
Time: 13:05:54
(UTC-05:00)

Daily predictions for brighter satellites

Satellite Brightness Start Highest point End
(mag) Time Altitude Azimuth Time Altitude Azimuth Time Altitude Azimuth
BREEZE-M R/B 3.7 17:18:05 10° SW 17:21:51 68° SE 17:33:44 10° ENE
CORIOLIS 4.2 17:17:57 10° SSE 17:23:14 65° ENE 17:28:32 10° N
Cosmos 1503 Rocket 4.0 17:20:43 10° NNW 17:26:02 71° ENE 17:31:22 10° SSE
YAOGAN 1 3.0 17:24:02 10° SE 17:28:04 40° ENE 17:32:07 10° N
CSL-04 Rocket 3.8 17:23:41 10° SSE 17:29:15 87° WSW 17:34:49 10° NNW
Cosmos 1484 Rocket 3.1 17:26:40 10° S 17:30:28 72° WSW 17:34:15 10° NNW
Cosmos 1300 3.9 17:27:40 10° NNE 17:30:43 22° ENE 17:33:46 10° SE
Meteor 2-21 4.4 17:28:16 10° N 17:34:22 69° E 17:40:22 10° SSE
NOSS 2-1 (C) 3.3 17:30:44 10° SW 17:34:25 77° NW 17:38:27 10° NNE
NOSS 2-1 (D) 3.4 17:31:24 10° SW 17:35:03 74° NW 17:39:06 10° NNE
Cosmos 1943 Rocket 2.4 17:31:06 10° NNW 17:36:31 47° ENE 17:41:51 10° SE
Cosmos 1992 Rocket 4.0 17:33:27 10° S 17:38:36 72° ESE 17:43:48 10° NNE
SL-8 Rocket 4.3 17:34:51 10° N 17:40:45 44° ENE 17:46:38 10° SSE
Cosmos 2218 Rocket 4.4 17:35:53 10° N 17:41:33 37° ENE 17:47:12 10° SE
USA 161 4.2 17:42:16 10° NW 17:43:01 11° WNW 17:43:45 10° W
Cosmos 1315 Rocket 4.0 17:40:25 10° SE 17:43:27 22° E 17:46:29 10° NE
ALOS 2.7 17:41:26 10° SE 17:45:47 40° ENE 17:50:09 10° N
ERS-2 3.4 17:43:28 10° ESE 17:46:15 21° ENE 17:49:02 10° NNE
Cosmos 1346 Rocket 4.4 17:47:34 10° NE 17:49:39 14° ENE 17:50:29 13° E
IRS-1A Rocket 4.2 17:46:23 10° SSE 17:51:53 79° ENE 17:57:31 10° NNW
BREEZE-M DEB (TANK) 2.4 17:47:06 10° SW 17:53:28 77° SSE 17:55:33 16° ENE
Cosmos 2221 2.5 17:49:47 10° N 17:54:10 75° E 17:58:32 10° SSE
ATLAS 2AS CENTAUR R/B 3.0 17:47:16 10° NW 17:55:15 88° WSW 18:02:33 10° SSE
BREEZE M DEB (TANK) 4.1 17:51:39 10° WSW 17:56:05 86° NNW 18:12:16 13° ENE
Cosmos 1908 4.3 17:52:58 10° NNW 17:56:44 48° W 18:00:26 10° SSW
Cosmos 968 Rocket 3.5 17:52:35 10° NNW 17:57:42 59° ENE 18:02:44 10° SSE
FENGYUN 3A 3.7 17:54:11 10° SSE 17:59:23 56° ENE 18:04:38 10° N
Meteor 1-21 Rocket 4.4 17:53:35 10° S 17:59:28 89° E 18:05:26 10° N
CZ-4 R/B 4.4 17:56:12 10° SSE 18:00:19 88° ENE 18:04:28 10° NNW
Tiangong 1 0.6 17:58:46 10° W 18:01:12 57° N 18:02:20 26° ENE
Cosmos 1408 Rocket 4.3 17:59:30 10° SSE 18:03:17 30° E 18:07:03 10° NNE
NOSS 2-1 (E) 4.3 17:59:49 10° WSW 18:03:22 43° NW 18:07:24 10° NNE
COSMO-SKYMED 1 2.5 18:02:41 10° NNE 18:07:03 80° ESE 18:11:23 10° S
SL-24 R/B - RUBIN 2 4.4 18:05:24 10° NNW 18:09:28 30° NE 18:11:35 20° E
Meteor 2-2 Rocket 4.5 18:04:23 10° N 18:09:56 46° ENE 18:15:21 10° SSE
H-2A R/B 3.5 18:07:14 10° SE 18:10:31 29° ENE 18:13:52 10° N
MOS 1 4.2 18:08:43 10° SSE 18:14:21 81° ENE 18:20:01 10° NNW
Cosmos 1328 4.0 18:10:41 10° S 18:14:34 50° E 18:18:28 10° NNE
Cosmos 1400 Rocket 3.1 18:11:01 10° SSW 18:15:01 70° WNW 18:19:07 10° N
NOSS 3-4 (A) 4.1 18:10:58 10° NNW 18:17:38 45° NE 18:24:32 11° ESE
NOSS 3-4 (C) 4.1 18:11:04 10° NNW 18:17:44 45° NE 18:24:30 11° ESE
Cosmos 1726 3.4 18:16:56 10° NNW 18:20:26 43° W 18:23:55 10° SSW
MTI 4.0 18:18:05 10° N 18:21:17 71° WNW 18:24:28 10° SSW
Cosmos 1943 4.0 18:15:50 10° SW 18:21:18 52° WNW 18:26:48 10° NNE
Cosmos 2366 rocket 3.9 18:15:26 10° N 18:21:41 70° E 18:27:50 10° SSE
Meteor 2-8 Rocket 4.4 18:16:30 10° S 18:22:35 71° E 18:28:44 10° NNE
Cosmos 2058 4.4 18:20:35 10° SE 18:22:32 20° ESE 18:22:32 20° ESE
Cosmos 1076 Rocket 3.9 18:23:55 10° SSW 18:28:14 64° W 18:32:36 10° N
Thor Agena Rocket 4.2 18:30:23 28° ENE 18:31:52 33° E 18:36:32 10° SSE
Cosmos 44 3.1 18:30:11 10° SSW 18:34:20 51° ESE 18:35:33 38° ENE
EO 1 Del DPAF 3.4 18:32:05 10° N 18:35:55 75° WNW 18:39:44 10° SSW
Cosmos 1328 Rocket 3.7 18:32:29 10° N 18:36:43 45° ENE 18:40:52 10° SSE
Nadezhda 3 Rocket 4.3 18:32:06 10° SSE 18:38:01 44° E 18:44:00 10° NNE
Cosmos 1703 3.4 18:42:06 10° S 18:45:33 50° ESE 18:45:33 50° ESE
Cosmos 1766 Rocket 3.7 18:42:39 10° SSW 18:46:58 72° W 18:51:18 10° N
SPOT 3 Rocket 4.0 18:44:17 10° S 18:49:21 62° WSW 18:54:29 10° NNW
Cosmos 44 Rocket 3.1 18:50:41 10° SSW 18:55:18 68° ESE 18:55:59 59° ENE
OAO 3 Rocket 4.0 18:54:22 10° WSW 18:58:44 39° S 18:59:43 35° SSE
USA 81 4.0 18:56:12 10° S 19:01:23 61° E 19:02:37 47° NE
Cosmos 1626 2.9 19:01:03 10° SSW 19:04:40 51° W 19:05:54 35° NNW
GEOS 3 Rocket 3.6 19:06:07 33° SE 19:08:36 88° WSW 19:14:01 10° NW
Cosmos 1777 Rocket 4.1 19:05:09 10° NNW 19:10:24 76° WSW 19:15:38 10° SSE
Cosmos 1656 Rocket 4.0 19:11:52 10° NNW 19:17:16 62° WSW 19:22:43 10° S
ERS-2 4.4 19:16:40 10° SSW 19:19:45 25° W 19:22:52 10° NW
Cosmos 1943 Rocket 4.4 19:15:32 10° NW 19:19:54 24° WSW 19:24:13 10° SSW
Cosmos 2239 Rocket 4.3 19:19:21 10° N 19:25:31 74° E 19:25:36 73° E
Cosmos 1346 Rocket 4.0 19:22:33 10° NNW 19:26:15 40° W 19:26:32 39° WSW
Cosmos 2098 Rocket 4.2 19:22:45 10° NNW 19:27:41 58° W 19:33:51 10° S
COSMOS 2406 3.4 19:38:35 10° SSW 19:43:50 69° WSW 19:43:50 69° WSW
